Regional Weather Roundup
Issued by NWS Jackson, KY

Home | Current Version | Previous Version | Text Only | Print | Product List | Glossary Off
Versions: 1 2 3 4 5 6 7 8 9 10 11 12 13 14 15 16 17 18 19 20 21 22 23 24 25 26 27 28 29 30 31 32 33 34 35 36 37 38 39 40 41 42 43 44 45 46 47 48 49 50

388
ASUS43 KJKL 081210
RWRJKL

EAST KENTUCKY HOURLY WEATHER ROUNDUP
NATIONAL WEATHER SERVICE JACKSON KY
700 AM EST THU DEC 08 2016

NOTE: "FAIR" INDICATES FEW OR NO CLOUDS BELOW 12,000 FEET WITH
NO SIGNIFICANT WEATHER AND/OR OBSTRUCTIONS TO VISIBILITY.

* THESE REPORTS ARE NOT UNDER NWS QUALITY CONTROL AND MAY NOT
  REPORT WEATHER SUCH AS PRECIPITATION AND FOG.

KYZ079-080-083-085-087-088-110-112-115-119-120-081300
...EASTERN KENTUCKY...

CITY           SKY/WX    TMP DP  RH WIND       PRES   REMARKS
JACKSON        CLOUDY    31  21  66 VRB7      30.21R WCI  24
6HR MIN TEMP:  31; 6HR MAX TEMP:  34;

LONDON         PTCLDY    31  20  63 NW6       30.25R WCI  25
6HR MIN TEMP:  31; 6HR MAX TEMP:  35;

SOMERSET*      CLOUDY    30  21  69 W5        30.29S WCI  25
MONTICELLO*    PTCLDY    30  25  81 W8        30.31R WCI  22
6HR MIN TEMP:  30; 6HR MAX TEMP:  36;

WILLIAMSBURG*  PTSUNNY   32  27  80 W5        30.26R WCI  27
MIDDLESBORO*   CLOUDY    34  22  62 NW8       30.24S WCI  27
6HR MIN TEMP:  34; 6HR MAX TEMP:  39;

HARLAN APT*    PTSUNNY   34  21  60 SW5       30.22R WCI  30
PIKE CO APT*   CLOUDY    32  23  71 W6        30.19R WCI  26
MOREHEAD APT*  CLOUDY    32  21  64 VRB3G12   30.23R
ASHLAND*       CLOUDY    36  21  55 W8        30.18R WCI  29
$$

KYZ035-036-041-042-044-050-067-078-099-081300
...CENTRAL KENTUCKY...

CITY           SKY/WX    TMP DP  RH WIND       PRES   REMARKS
MT STERLING*   CLOUDY    32  23  69 W7        30.24R WCI  26
FLEMING/MASON* CLOUDY    29  20  69 W13       30.22S WCI  19
DANVILLE*      CLOUDY    30  21  69 W6        30.27R WCI  24
LEXINGTON      CLOUDY    30  19  63 W9        30.24R WCI  22
6HR MIN TEMP:  30; 6HR MAX TEMP:  34;

FRANKFORT      CLOUDY    30  18  60 W6        30.25R WCI  24
6HR MIN TEMP:  30; 6HR MAX TEMP:  34;

LOUISVILLE     PTCLDY    29  16  58 W10       30.29R WCI  20
6HR MIN TEMP:  29; 6HR MAX TEMP:  35;

LEBANON*         N/A     30  23  74 W5        30.28S WCI  25
GLASGOW*       MOCLDY    30  23  74 CALM      30.31S
BOWLING GREEN  PTCLDY    32  22  66 W3        30.34R
6HR MIN TEMP:  32; 6HR MAX TEMP:  37;

$$

KYZ091>093-OHZ055-061-077-WVZ005-015-034-035-042-081300
...SOUTHERN OHIO/WEST VIRGINIA...

CITY           SKY/WX    TMP DP  RH WIND       PRES   REMARKS
COVINGTON      PTCLDY    26  16  65 W13       30.22R WCI  15
COLUMBUS       CLOUDY    27  19  72 W17G25    30.14R WCI  14
DAYTON         CLOUDY    24  15  68 W22G30    30.18R WCI   9
WILMINGTON     MOCLDY    26  19  74 W15       30.17R WCI  14
HUNTINGTON     CLOUDY    34  23  64 W6        30.18R WCI  29
CHARLESTON     CLOUDY    34  25  69 SW8       30.15S WCI  27
PINEVILLE*       N/A     32  29  90 MISG      30.19R
BECKLEY        CLOUDY    30  20  66 NW7       30.08R WCI  23
BLUEFIELD      CLOUDY    28  22  78 W7        30.08R WCI  21
LOGAN CO APT*  CLOUDY    32  23  69 W6G12     30.14R WCI  26
$$

VAZ002-007-008-TNZ017-027-036-066-071-081300
...SOUTHWEST VIRGINIA/EAST TENNESSEE...

CITY           SKY/WX    TMP DP  RH WIND       PRES   REMARKS
WISE*          CLOUDY    32  18  55 W5        30.15R WCI  27
ABINGDON*      CLOUDY    37  23  56 W7        30.13R WCI  32
BRISTOL        CLOUDY    39  28  64 W5        30.16R
MORRISTOWN*    CLOUDY    37  19  48 N6G12     30.20R WCI  33
SEVIERVILLE*   CLOUDY    37  25  60 W5        30.22R WCI  34
KNOXVILLE      CLOUDY    39  20  46 N9        30.23R WCI  33
OAK RIDGE      CLOUDY    39  18  42 N9        30.25R WCI  33
CROSSVILLE     PTCLDY    30  18  60 NW9       30.24R WCI  22
NASHVILLE      PTCLDY    34  20  56 NW6       30.34R WCI  29
$$

...KEY TO REMARKS...
VSB - VISIBILITY IN MILES
WCI - WIND CHILL INDEX
HX  - HEAT INDEX

$$




USA.gov is the U.S. government's official web portal to all federal, state and local government web resources and services.